TimeEST,TemperatureF,Dew PointF,Humidity,Sea Level PressureIn,VisibilityMPH,Wind Direction,Wind SpeedMPH,Gust SpeedMPH,PrecipitationIn,Events,Conditions,WindDirDegrees,DateUTC
12:51 AM,59.0,45.0,60,29.99,10.0,South,6.9,-,N/A,,Overcast,170,2013-11-07 05:51:00
1:51 AM,59.0,46.0,62,29.97,10.0,SSE,4.6,-,N/A,,Overcast,160,2013-11-07 06:51:00
2:51 AM,59.0,48.0,67,29.95,10.0,SSW,5.8,-,0.00,Rain,Light Rain,210,2013-11-07 07:51:00
3:51 AM,54.0,51.1,90,29.96,9.0,South,3.5,-,0.03,Rain,Light Rain,180,2013-11-07 08:51:00
4:07 AM,53.6,51.8,94,29.96,10.0,South,5.8,-,0.00,Rain,Light Rain,170,2013-11-07 09:07:00
4:39 AM,53.6,51.8,94,29.96,10.0,South,6.9,-,0.01,Rain,Light Rain,190,2013-11-07 09:39:00
4:51 AM,54.0,52.0,93,29.96,10.0,South,8.1,-,0.02,Rain,Light Rain,180,2013-11-07 09:51:00
4:59 AM,53.6,51.8,94,29.96,10.0,South,8.1,-,0.01,Rain,Light Rain,180,2013-11-07 09:59:00
5:51 AM,54.0,52.0,93,29.96,10.0,South,4.6,-,0.02,Rain,Light Rain,180,2013-11-07 10:51:00
5:58 AM,53.6,51.8,94,29.96,10.0,South,4.6,-,0.00,Rain,Light Rain,180,2013-11-07 10:58:00
6:51 AM,54.0,52.0,93,29.95,10.0,Calm,Calm,-,0.05,Rain,Light Rain,0,2013-11-07 11:51:00
7:41 AM,51.8,48.2,88,29.97,10.0,WNW,20.7,27.6,0.06,Rain,Light Rain,300,2013-11-07 12:41:00
7:51 AM,50.0,46.0,86,29.99,10.0,WNW,15.0,25.3,0.08,Rain,Rain,300,2013-11-07 12:51:00
8:29 AM,48.2,44.6,87,30.01,10.0,WNW,10.4,19.6,0.06,Rain,Rain,300,2013-11-07 13:29:00
8:51 AM,46.9,44.1,90,30.04,10.0,NW,9.2,-,0.09,Rain,Light Rain,310,2013-11-07 13:51:00
9:02 AM,46.4,44.6,93,30.02,10.0,NNW,3.5,-,0.01,Rain,Light Rain,340,2013-11-07 14:02:00
9:48 AM,46.4,42.8,87,30.04,10.0,West,6.9,23.0,0.05,Rain,Light Rain,280,2013-11-07 14:48:00
9:51 AM,46.0,43.0,89,30.06,10.0,West,9.2,19.6,0.05,Rain,Light Rain,270,2013-11-07 14:51:00
9:59 AM,46.4,42.8,87,30.05,10.0,WNW,8.1,-,0.00,Rain,Light Rain,290,2013-11-07 14:59:00
10:51 AM,44.1,39.9,85,30.09,10.0,NW,8.1,-,0.00,,Overcast,310,2013-11-07 15:51:00
11:51 AM,44.1,39.0,82,30.10,10.0,WNW,9.2,-,0.00,,Overcast,300,2013-11-07 16:51:00
12:51 PM,43.0,37.9,82,30.09,10.0,WNW,10.4,19.6,0.00,Rain,Light Rain,290,2013-11-07 17:51:00
1:51 PM,43.0,37.9,82,30.10,10.0,WNW,12.7,20.7,0.01,Rain,Light Rain,290,2013-11-07 18:51:00
2:35 PM,42.8,35.6,76,30.08,10.0,WNW,9.2,16.1,0.00,,Overcast,290,2013-11-07 19:35:00
2:49 PM,41.0,35.6,81,30.08,10.0,West,9.2,-,0.00,Rain,Light Rain,280,2013-11-07 19:49:00
2:51 PM,41.0,35.1,79,30.11,10.0,West,8.1,-,0.00,Rain,Light Rain,270,2013-11-07 19:51:00
3:01 PM,42.8,33.8,70,30.09,10.0,West,10.4,19.6,0.00,Rain,Light Rain,280,2013-11-07 20:01:00
3:51 PM,42.1,33.1,70,30.11,10.0,West,9.2,16.1,0.00,,Overcast,280,2013-11-07 20:51:00
4:51 PM,41.0,30.9,67,30.12,10.0,Variable,5.8,17.3,N/A,,Overcast,0,2013-11-07 21:51:00
5:51 PM,41.0,30.9,67,30.14,10.0,WNW,9.2,-,N/A,,Overcast,290,2013-11-07 22:51:00
6:51 PM,39.0,28.0,65,30.17,10.0,WNW,15.0,23.0,N/A,,Mostly Cloudy,300,2013-11-07 23:51:00
7:51 PM,39.0,25.0,57,30.19,10.0,WNW,15.0,21.9,N/A,,Mostly Cloudy,300,2013-11-08 00:51:00
8:51 PM,37.9,23.0,55,30.19,10.0,WNW,5.8,-,N/A,,Overcast,300,2013-11-08 01:51:00
9:51 PM,37.0,24.1,59,30.19,10.0,WNW,9.2,-,N/A,,Overcast,300,2013-11-08 02:51:00
10:51 PM,37.0,24.1,59,30.19,10.0,West,6.9,-,N/A,,Overcast,270,2013-11-08 03:51:00
11:51 PM,37.0,25.0,62,30.19,10.0,West,10.4,-,N/A,,Overcast,260,2013-11-08 04:51:00